Time,TemperatureF,DewpointF,PressureIn,WindDirection,WindDirectionDegrees,WindSpeedMPH,WindSpeedGustMPH,Humidity,HourlyPrecipIn,Conditions,Clouds,dailyrainin,SolarRadiationWatts/m^2,SoftwareType,DateUTC
2013-03-30 00:07:00,55.8,16.3,29.76,NE,51,0.0,1.0,21,0.00,,,0.00,0.0,meteohub,2013-03-30 06:07:00,
2013-03-30 00:12:00,55.6,16.2,29.76,NE,51,1.0,1.0,21,0.00,,,0.00,0.0,meteohub,2013-03-30 06:12:00,
2013-03-30 00:17:00,55.6,16.2,29.76,NE,51,0.0,1.0,21,0.00,,,0.00,0.0,meteohub,2013-03-30 06:17:00,
2013-03-30 00:22:00,55.2,17.1,29.77,NE,51,0.0,1.0,22,0.00,,,0.00,0.0,meteohub,2013-03-30 06:22:00,
2013-03-30 00:27:00,54.9,16.7,29.77,NE,51,0.0,1.0,22,0.00,,,0.00,0.0,meteohub,2013-03-30 06:27:00,
2013-03-30 00:32:00,54.3,17.2,29.77,NE,51,0.0,1.0,23,0.00,,,0.00,0.0,meteohub,2013-03-30 06:32:00,
2013-03-30 00:37:00,54.1,16.2,29.77,NE,51,0.0,2.0,22,0.00,,,0.00,0.0,meteohub,2013-03-30 06:37:00,
2013-03-30 00:47:00,53.8,16.9,29.78,NE,51,0.0,2.0,23,0.00,,,0.00,0.0,meteohub,2013-03-30 06:47:00,
2013-03-30 00:52:00,53.4,18.5,29.78,ENE,57,1.0,2.0,25,0.00,,,0.00,0.0,meteohub,2013-03-30 06:52:00,
2013-03-30 00:57:00,53.1,18.1,29.78,ENE,57,2.0,2.0,25,0.00,,,0.00,0.0,meteohub,2013-03-30 06:57:00,
2013-03-30 01:02:00,53.6,16.7,29.78,ENE,57,0.0,3.0,23,0.00,,,0.00,0.0,meteohub,2013-03-30 07:02:00,
2013-03-30 01:07:00,53.8,16.9,29.77,ENE,57,1.0,3.0,23,0.00,,,0.00,0.0,meteohub,2013-03-30 07:07:00,
2013-03-30 01:17:00,52.9,17.1,29.78,ENE,58,1.0,2.0,24,0.00,,,0.00,0.0,meteohub,2013-03-30 07:17:00,
2013-03-30 01:22:00,53.2,17.4,29.78,ENE,58,0.0,2.0,24,0.00,,,0.00,0.0,meteohub,2013-03-30 07:22:00,
2013-03-30 01:27:00,53.2,17.4,29.78,ENE,58,3.0,3.0,24,0.00,,,0.00,0.0,meteohub,2013-03-30 07:27:00,
2013-03-30 01:32:00,53.2,16.3,29.78,ENE,59,3.0,3.0,23,0.00,,,0.00,0.0,meteohub,2013-03-30 07:32:00,
2013-03-30 01:37:00,52.9,17.1,29.78,ENE,59,1.0,4.0,24,0.00,,,0.00,0.0,meteohub,2013-03-30 07:37:00,
2013-03-30 01:47:00,51.6,17.8,29.78,ENE,59,0.0,4.0,26,0.00,,,0.00,0.0,meteohub,2013-03-30 07:47:00,
2013-03-30 01:52:00,51.1,18.3,29.78,ENE,59,0.0,3.0,27,0.00,,,0.00,0.0,meteohub,2013-03-30 07:52:00,
2013-03-30 01:57:00,50.5,18.7,29.78,ENE,59,0.0,2.0,28,0.00,,,0.00,0.0,meteohub,2013-03-30 07:57:00,
2013-03-30 02:02:00,50.5,18.7,29.78,ENE,59,0.0,1.0,28,0.00,,,0.00,0.0,meteohub,2013-03-30 08:02:00,
2013-03-30 02:07:00,50.7,18.9,29.78,ENE,59,1.0,2.0,28,0.00,,,0.00,0.0,meteohub,2013-03-30 08:07:00,
2013-03-30 02:12:00,50.2,18.3,29.78,ENE,59,2.0,2.0,28,0.00,,,0.00,0.0,meteohub,2013-03-30 08:12:00,
2013-03-30 02:17:00,49.6,18.7,29.78,ENE,60,2.0,3.0,29,0.00,,,0.00,0.0,meteohub,2013-03-30 08:17:00,
2013-03-30 02:22:00,49.5,18.5,29.77,ENE,69,3.0,3.0,29,0.00,,,0.00,0.0,meteohub,2013-03-30 08:22:00,
2013-03-30 02:27:00,49.8,18.0,29.77,ENE,78,2.0,3.0,28,0.00,,,0.00,0.0,meteohub,2013-03-30 08:27:00,
2013-03-30 02:32:00,50.2,18.3,29.77,East,90,2.0,6.0,28,0.00,,,0.00,0.0,meteohub,2013-03-30 08:32:00,
2013-03-30 02:37:00,50.5,17.8,29.77,East,92,2.0,6.0,27,0.00,,,0.00,0.0,meteohub,2013-03-30 08:37:00,
2013-03-30 02:42:00,50.7,18.0,29.77,East,92,1.0,6.0,27,0.00,,,0.00,0.0,meteohub,2013-03-30 08:42:00,
2013-03-30 02:47:00,50.5,17.8,29.77,East,92,0.0,5.0,27,0.00,,,0.00,0.0,meteohub,2013-03-30 08:47:00,
2013-03-30 02:52:00,50.2,18.3,29.77,East,92,0.0,3.0,28,0.00,,,0.00,0.0,meteohub,2013-03-30 08:52:00,
2013-03-30 03:02:00,49.8,18.0,29.77,East,90,1.0,3.0,28,0.00,,,0.00,0.0,meteohub,2013-03-30 09:02:00,
2013-03-30 03:07:00,50.2,18.3,29.77,East,90,2.0,3.0,28,0.00,,,0.00,0.0,meteohub,2013-03-30 09:07:00,
2013-03-30 03:17:00,50.2,18.3,29.77,East,90,1.0,3.0,28,0.00,,,0.00,0.0,meteohub,2013-03-30 09:17:00,
2013-03-30 03:22:00,50.7,18.0,29.77,East,90,0.0,3.0,27,0.00,,,0.00,0.0,meteohub,2013-03-30 09:22:00,
2013-03-30 03:27:00,50.7,18.0,29.77,East,90,0.0,2.0,27,0.00,,,0.00,0.0,meteohub,2013-03-30 09:27:00,
2013-03-30 03:32:00,50.2,18.3,29.77,East,90,0.0,1.0,28,0.00,,,0.00,0.0,meteohub,2013-03-30 09:32:00,
2013-03-30 03:37:00,50.2,18.3,29.76,East,90,1.0,1.0,28,0.00,,,0.00,0.0,meteohub,2013-03-30 09:37:00,
2013-03-30 03:42:00,50.4,18.5,29.76,East,90,1.0,3.0,28,0.00,,,0.00,0.0,meteohub,2013-03-30 09:42:00,
2013-03-30 03:47:00,50.7,18.9,29.76,ENE,78,2.0,3.0,28,0.00,,,0.00,0.0,meteohub,2013-03-30 09:47:00,
2013-03-30 03:52:00,51.1,19.0,29.76,NE,56,2.0,4.0,28,0.00,,,0.00,0.0,meteohub,2013-03-30 09:52:00,
2013-03-30 03:57:00,51.3,18.3,29.77,NE,55,2.0,5.0,27,0.00,,,0.00,0.0,meteohub,2013-03-30 09:57:00,
2013-03-30 04:02:00,51.3,18.3,29.76,NE,56,1.0,5.0,27,0.00,,,0.00,0.0,meteohub,2013-03-30 10:02:00,
2013-03-30 04:07:00,51.1,18.3,29.77,ENE,57,2.0,5.0,27,0.00,,,0.00,0.0,meteohub,2013-03-30 10:07:00,
2013-03-30 04:12:00,50.5,18.7,29.77,ENE,57,0.0,3.0,28,0.00,,,0.00,0.0,meteohub,2013-03-30 10:12:00,
2013-03-30 04:17:00,50.4,19.2,29.77,ENE,57,0.0,3.0,29,0.00,,,0.00,0.0,meteohub,2013-03-30 10:17:00,
2013-03-30 04:22:00,49.6,18.7,29.77,ENE,57,0.0,2.0,29,0.00,,,0.00,0.0,meteohub,2013-03-30 10:22:00,
2013-03-30 04:27:00,49.3,19.2,29.77,ENE,57,1.0,2.0,30,0.00,,,0.00,0.0,meteohub,2013-03-30 10:27:00,
2013-03-30 04:32:00,48.7,18.7,29.77,ENE,57,1.0,2.0,30,0.00,,,0.00,0.0,meteohub,2013-03-30 10:32:00,
2013-03-30 04:37:00,48.6,19.2,29.77,ENE,57,1.0,3.0,31,0.00,,,0.00,0.0,meteohub,2013-03-30 10:37:00,
2013-03-30 04:42:00,48.4,19.0,29.77,ENE,57,2.0,3.0,31,0.00,,,0.00,0.0,meteohub,2013-03-30 10:42:00,
2013-03-30 04:47:00,48.4,19.0,29.77,ENE,57,3.0,3.0,31,0.00,,,0.00,0.0,meteohub,2013-03-30 10:47:00,
2013-03-30 04:52:00,48.4,19.0,29.78,ENE,57,3.0,3.0,31,0.00,,,0.00,0.0,meteohub,2013-03-30 10:52:00,
2013-03-30 04:57:00,48.0,18.9,29.78,NE,55,2.0,4.0,31,0.00,,,0.00,0.0,meteohub,2013-03-30 10:57:00,
2013-03-30 05:02:00,48.0,18.9,29.78,NE,55,1.0,5.0,31,0.00,,,0.00,0.0,meteohub,2013-03-30 11:02:00,
2013-03-30 05:07:00,48.2,19.0,29.78,NE,55,2.0,5.0,31,0.00,,,0.00,0.0,meteohub,2013-03-30 11:07:00,
2013-03-30 05:17:00,48.0,18.9,29.78,ENE,58,3.0,5.0,31,0.00,,,0.00,0.0,meteohub,2013-03-30 11:17:00,
2013-03-30 05:27:00,48.0,18.9,29.79,ENE,63,3.0,7.0,31,0.00,,,0.00,0.0,meteohub,2013-03-30 11:27:00,
2013-03-30 05:32:00,47.8,18.7,29.79,ENE,73,3.0,7.0,31,0.00,,,0.00,0.0,meteohub,2013-03-30 11:32:00,
2013-03-30 05:37:00,47.8,18.7,29.79,ENE,68,3.0,7.0,31,0.00,,,0.00,0.0,meteohub,2013-03-30 11:37:00,
2013-03-30 05:42:00,47.8,18.7,29.79,ENE,69,3.0,7.0,31,0.00,,,0.00,0.0,meteohub,2013-03-30 11:42:00,
2013-03-30 05:47:00,47.8,18.7,29.79,ENE,61,3.0,7.0,31,0.00,,,0.00,0.0,meteohub,2013-03-30 11:47:00,
2013-03-30 05:52:00,47.8,18.7,29.79,ENE,67,2.0,7.0,31,0.00,,,0.00,0.0,meteohub,2013-03-30 11:52:00,
2013-03-30 05:57:00,47.7,18.5,29.80,ENE,66,1.0,7.0,31,0.00,,,0.00,0.0,meteohub,2013-03-30 11:57:00,
2013-03-30 06:07:00,47.1,18.7,29.80,ENE,67,1.0,4.0,32,0.00,,,0.00,0.0,meteohub,2013-03-30 12:07:00,
2013-03-30 06:12:00,47.1,18.7,29.80,ENE,68,1.0,4.0,32,0.00,,,0.00,0.0,meteohub,2013-03-30 12:12:00,
2013-03-30 06:17:00,46.9,19.4,29.80,ENE,68,2.0,4.0,33,0.00,,,0.00,0.0,meteohub,2013-03-30 12:17:00,
2013-03-30 06:22:00,46.6,19.0,29.80,ENE,71,0.0,4.0,33,0.00,,,0.00,0.0,meteohub,2013-03-30 12:22:00,
2013-03-30 06:27:00,46.2,19.4,29.80,ENE,71,1.0,3.0,34,0.00,,,0.00,0.0,meteohub,2013-03-30 12:27:00,
2013-03-30 06:32:00,46.0,19.2,29.80,ENE,71,1.0,3.0,34,0.00,,,0.00,0.0,meteohub,2013-03-30 12:32:00,
2013-03-30 06:37:00,45.9,19.8,29.81,ENE,73,3.0,3.0,35,0.00,,,0.00,0.0,meteohub,2013-03-30 12:37:00,
2013-03-30 06:42:00,45.9,19.8,29.81,ENE,76,1.0,3.0,35,0.00,,,0.00,0.0,meteohub,2013-03-30 12:42:00,
2013-03-30 06:47:00,45.9,19.8,29.81,ENE,76,0.0,3.0,35,0.00,,,0.00,0.0,meteohub,2013-03-30 12:47:00,
2013-03-30 06:52:00,45.7,19.6,29.81,ENE,76,0.0,3.0,35,0.00,,,0.00,0.0,meteohub,2013-03-30 12:52:00,
2013-03-30 06:57:00,45.5,19.4,29.81,ENE,76,1.0,2.0,35,0.00,,,0.00,5.0,meteohub,2013-03-30 12:57:00,
2013-03-30 07:02:00,45.3,19.9,29.81,ENE,76,0.0,2.0,36,0.00,,,0.00,7.0,meteohub,2013-03-30 13:02:00,
2013-03-30 07:07:00,45.1,19.8,29.81,ENE,76,0.0,2.0,36,0.00,,,0.00,9.0,meteohub,2013-03-30 13:07:00,
2013-03-30 07:12:00,45.1,19.8,29.81,ENE,75,3.0,3.0,36,0.00,,,0.00,12.0,meteohub,2013-03-30 13:12:00,
2013-03-30 07:17:00,45.3,19.9,29.81,ENE,75,1.0,3.0,36,0.00,,,0.00,14.0,meteohub,2013-03-30 13:17:00,
2013-03-30 07:22:00,45.7,19.6,29.81,ENE,75,2.0,3.0,35,0.00,,,0.00,18.0,meteohub,2013-03-30 13:22:00,
2013-03-30 07:32:00,46.8,19.9,29.82,ENE,76,0.0,3.0,34,0.00,,,0.00,77.0,meteohub,2013-03-30 13:32:00,
2013-03-30 07:42:00,47.7,19.9,29.81,ENE,76,0.0,3.0,33,0.00,,,0.00,111.0,meteohub,2013-03-30 13:42:00,
2013-03-30 07:47:00,48.0,19.6,29.82,ENE,75,1.0,2.0,32,0.00,,,0.00,132.0,meteohub,2013-03-30 13:47:00,
2013-03-30 07:52:00,48.7,19.4,29.82,ENE,75,0.0,2.0,31,0.00,,,0.00,153.0,meteohub,2013-03-30 13:52:00,
2013-03-30 07:57:00,49.3,19.9,29.82,ENE,75,0.0,2.0,31,0.00,,,0.00,171.0,meteohub,2013-03-30 13:57:00,
2013-03-30 08:02:00,49.8,19.6,29.82,ENE,59,2.0,2.0,30,0.00,,,0.00,190.0,meteohub,2013-03-30 14:02:00,
2013-03-30 08:07:00,50.2,19.9,29.82,ENE,57,2.0,4.0,30,0.00,,,0.00,207.0,meteohub,2013-03-30 14:07:00,
2013-03-30 08:17:00,51.3,19.2,29.82,North,355,2.0,4.0,28,0.00,,,0.00,241.0,meteohub,2013-03-30 14:17:00,
2013-03-30 08:22:00,51.6,19.6,29.82,NNW,348,1.0,4.0,28,0.00,,,0.00,260.0,meteohub,2013-03-30 14:22:00,
2013-03-30 08:27:00,52.0,19.9,29.82,NNW,346,1.0,4.0,28,0.00,,,0.00,279.0,meteohub,2013-03-30 14:27:00,
2013-03-30 08:37:00,52.7,20.5,29.82,NNW,347,2.0,3.0,28,0.00,,,0.00,320.0,meteohub,2013-03-30 14:37:00,
2013-03-30 08:42:00,52.9,19.8,29.82,NNE,17,4.0,4.0,27,0.00,,,0.00,339.0,meteohub,2013-03-30 14:42:00,
2013-03-30 08:47:00,53.1,19.9,29.82,NNW,342,1.0,5.0,27,0.00,,,0.00,357.0,meteohub,2013-03-30 14:47:00,
2013-03-30 08:52:00,53.4,19.4,29.82,NNW,336,2.0,5.0,26,0.00,,,0.00,367.0,meteohub,2013-03-30 14:52:00,
2013-03-30 09:02:00,53.6,20.5,29.82,NNW,343,3.0,5.0,27,0.00,,,0.00,408.0,meteohub,2013-03-30 15:02:00,
2013-03-30 09:07:00,53.8,20.7,29.82,NW,307,3.0,5.0,27,0.00,,,0.00,431.0,meteohub,2013-03-30 15:07:00,
2013-03-30 09:17:00,53.2,20.1,29.82,NNW,347,3.0,6.0,27,0.00,,,0.00,438.0,meteohub,2013-03-30 15:17:00,
2013-03-30 09:27:00,52.7,19.6,29.82,NNW,327,4.0,6.0,27,0.00,,,0.00,501.0,meteohub,2013-03-30 15:27:00,
2013-03-30 09:32:00,52.9,19.8,29.81,NNW,331,3.0,5.0,27,0.00,,,0.00,512.0,meteohub,2013-03-30 15:32:00,
2013-03-30 09:37:00,53.2,20.1,29.81,NNW,329,5.0,5.0,27,0.00,,,0.00,512.0,meteohub,2013-03-30 15:37:00,
2013-03-30 09:42:00,54.0,20.7,29.81,NW,311,4.0,6.0,27,0.00,,,0.00,555.0,meteohub,2013-03-30 15:42:00,
2013-03-30 09:52:00,54.1,19.9,29.81,NW,321,3.0,6.0,26,0.00,,,0.00,563.0,meteohub,2013-03-30 15:52:00,
2013-03-30 09:57:00,54.5,19.4,29.81,NW,317,2.0,5.0,25,0.00,,,0.00,552.0,meteohub,2013-03-30 15:57:00,
2013-03-30 10:07:00,55.6,19.4,29.81,NW,318,3.0,5.0,24,0.00,,,0.00,619.0,meteohub,2013-03-30 16:07:00,
2013-03-30 10:12:00,55.8,19.6,29.81,WNW,300,3.0,5.0,24,0.00,,,0.00,631.0,meteohub,2013-03-30 16:12:00,
2013-03-30 10:22:00,56.7,20.3,29.81,WNW,292,5.0,5.0,24,0.00,,,0.00,661.0,meteohub,2013-03-30 16:22:00,
2013-03-30 10:27:00,57.4,20.8,29.81,WNW,286,3.0,5.0,24,0.00,,,0.00,673.0,meteohub,2013-03-30 16:27:00,
2013-03-30 10:32:00,57.4,18.9,29.81,NW,311,3.0,5.0,22,0.00,,,0.00,686.0,meteohub,2013-03-30 16:32:00,
2013-03-30 10:42:00,58.5,19.8,29.81,West,264,3.0,6.0,22,0.00,,,0.00,714.0,meteohub,2013-03-30 16:42:00,
2013-03-30 10:47:00,58.6,19.9,29.81,West,268,0.0,6.0,22,0.00,,,0.00,733.0,meteohub,2013-03-30 16:47:00,
2013-03-30 10:57:00,60.1,21.0,29.81,WSW,250,0.0,5.0,22,0.00,,,0.00,670.0,meteohub,2013-03-30 16:57:00,
2013-03-30 11:02:00,60.1,19.9,29.81,SW,231,4.0,6.0,21,0.00,,,0.00,540.0,meteohub,2013-03-30 17:02:00,
2013-03-30 11:07:00,60.3,20.1,29.80,SW,231,1.0,6.0,21,0.00,,,0.00,626.0,meteohub,2013-03-30 17:07:00,
2013-03-30 11:12:00,61.0,20.8,29.80,SW,234,2.0,6.0,21,0.00,,,0.00,591.0,meteohub,2013-03-30 17:12:00,
2013-03-30 11:22:00,62.4,20.8,29.80,SW,226,0.0,5.0,20,0.00,,,0.00,756.0,meteohub,2013-03-30 17:22:00,
2013-03-30 11:27:00,62.4,20.8,29.80,SSE,163,3.0,5.0,20,0.00,,,0.00,729.0,meteohub,2013-03-30 17:27:00,
2013-03-30 11:32:00,63.7,20.7,29.80,SSW,213,6.0,6.0,19,0.00,,,0.00,703.0,meteohub,2013-03-30 17:32:00,
2013-03-30 11:37:00,63.0,21.2,29.80,SSW,208,3.0,8.0,20,0.00,,,0.00,752.0,meteohub,2013-03-30 17:37:00,
2013-03-30 11:47:00,64.2,19.8,29.80,SSW,195,2.0,8.0,18,0.00,,,0.00,819.0,meteohub,2013-03-30 17:47:00,
2013-03-30 11:57:00,64.9,21.7,29.79,South,184,0.0,7.0,19,0.00,,,0.00,865.0,meteohub,2013-03-30 17:57:00,
2013-03-30 12:07:00,66.0,19.9,29.78,SSW,208,6.0,6.0,17,0.00,,,0.00,824.0,meteohub,2013-03-30 18:07:00,
2013-03-30 12:17:00,66.4,20.3,29.78,South,181,6.0,8.0,17,0.00,,,0.00,833.0,meteohub,2013-03-30 18:17:00,
2013-03-30 12:27:00,67.3,18.0,29.78,SE,138,2.0,7.0,15,0.00,,,0.00,791.0,meteohub,2013-03-30 18:27:00,
2013-03-30 12:32:00,67.6,19.8,29.77,South,170,3.0,7.0,16,0.00,,,0.00,693.0,meteohub,2013-03-30 18:32:00,
2013-03-30 12:42:00,68.0,20.1,29.77,SW,229,5.0,9.0,16,0.00,,,0.00,631.0,meteohub,2013-03-30 18:42:00,
2013-03-30 12:47:00,67.6,19.8,29.77,WSW,241,6.0,10.0,16,0.00,,,0.00,555.0,meteohub,2013-03-30 18:47:00,
2013-03-30 12:53:00,67.1,19.4,29.76,SW,221,3.0,10.0,16,0.00,,,0.00,566.0,meteohub,2013-03-30 18:53:00,
2013-03-30 13:02:00,67.3,18.0,29.75,West,262,4.0,9.0,15,0.00,,,0.00,538.0,meteohub,2013-03-30 19:02:00,
2013-03-30 13:07:00,67.3,19.6,29.75,SW,215,0.0,9.0,16,0.00,,,0.00,578.0,meteohub,2013-03-30 19:07:00,
2013-03-30 13:12:00,67.6,18.3,29.75,SE,140,1.0,9.0,15,0.00,,,0.00,540.0,meteohub,2013-03-30 19:12:00,
2013-03-30 13:22:00,67.8,18.5,29.74,SW,236,1.0,7.0,15,0.00,,,0.00,563.0,meteohub,2013-03-30 19:22:00,
2013-03-30 13:27:00,67.8,18.5,29.74,SW,214,6.0,12.0,15,0.00,,,0.00,555.0,meteohub,2013-03-30 19:27:00,
2013-03-30 13:32:00,67.6,18.3,29.74,West,274,0.0,12.0,15,0.00,,,0.00,570.0,meteohub,2013-03-30 19:32:00,
2013-03-30 13:37:00,67.8,18.5,29.73,South,180,5.0,12.0,15,0.00,,,0.00,538.0,meteohub,2013-03-30 19:37:00,
2013-03-30 13:47:00,68.7,17.6,29.73,SW,223,3.0,10.0,14,0.00,,,0.00,534.0,meteohub,2013-03-30 19:47:00,
2013-03-30 13:52:00,68.4,18.9,29.73,West,277,1.0,12.0,15,0.00,,,0.00,510.0,meteohub,2013-03-30 19:52:00,
2013-03-30 13:57:00,68.5,17.4,29.73,WSW,240,3.0,12.0,14,0.00,,,0.00,497.0,meteohub,2013-03-30 19:57:00,
2013-03-30 14:02:00,67.8,18.5,29.72,SSW,209,3.0,10.0,15,0.00,,,0.00,471.0,meteohub,2013-03-30 20:02:00,
2013-03-30 14:07:00,67.8,18.5,29.72,South,180,3.0,10.0,15,0.00,,,0.00,487.0,meteohub,2013-03-30 20:07:00,
2013-03-30 14:12:00,68.2,18.7,29.72,South,184,5.0,9.0,15,0.00,,,0.00,478.0,meteohub,2013-03-30 20:12:00,
2013-03-30 14:17:00,68.2,17.2,29.71,SSW,198,5.0,9.0,14,0.00,,,0.00,504.0,meteohub,2013-03-30 20:17:00,
2013-03-30 14:27:00,69.1,18.0,29.71,West,280,6.0,10.0,14,0.00,,,0.00,425.0,meteohub,2013-03-30 20:27:00,
2013-03-30 14:32:00,69.3,18.0,29.70,South,185,4.0,10.0,14,0.00,,,0.00,432.0,meteohub,2013-03-30 20:32:00,
2013-03-30 14:37:00,68.9,17.8,29.70,South,169,5.0,10.0,14,0.00,,,0.00,411.0,meteohub,2013-03-30 20:37:00,
2013-03-30 14:47:00,69.4,18.1,29.70,NW,309,6.0,11.0,14,0.00,,,0.00,410.0,meteohub,2013-03-30 20:47:00,
2013-03-30 14:52:00,69.1,18.0,29.69,WSW,250,7.0,11.0,14,0.00,,,0.00,376.0,meteohub,2013-03-30 20:52:00,
2013-03-30 14:57:00,69.6,18.3,29.69,West,264,8.0,16.0,14,0.00,,,0.00,383.0,meteohub,2013-03-30 20:57:00,
2013-03-30 15:02:00,69.3,18.0,29.68,NW,310,3.0,16.0,14,0.00,,,0.00,394.0,meteohub,2013-03-30 21:02:00,
2013-03-30 15:07:00,70.2,18.7,29.68,WSW,244,4.0,16.0,14,0.00,,,0.00,404.0,meteohub,2013-03-30 21:07:00,
2013-03-30 15:12:00,70.0,16.9,29.68,WSW,244,4.0,13.0,13,0.00,,,0.00,394.0,meteohub,2013-03-30 21:12:00,
2013-03-30 15:17:00,69.6,16.5,29.68,SW,225,9.0,14.0,13,0.00,,,0.00,380.0,meteohub,2013-03-30 21:17:00,
2013-03-30 15:22:00,70.2,17.1,29.68,WNW,303,7.0,14.0,13,0.00,,,0.00,373.0,meteohub,2013-03-30 21:22:00,
2013-03-30 15:27:00,70.2,17.1,29.68,WNW,303,5.0,14.0,13,0.00,,,0.00,362.0,meteohub,2013-03-30 21:27:00,
2013-03-30 15:37:00,69.8,16.7,29.67,WNW,293,0.0,12.0,13,0.00,,,0.00,360.0,meteohub,2013-03-30 21:37:00,
2013-03-30 15:42:00,70.0,16.9,29.67,WSW,240,4.0,12.0,13,0.00,,,0.00,353.0,meteohub,2013-03-30 21:42:00,
2013-03-30 15:47:00,70.0,15.1,29.66,WNW,292,3.0,10.0,12,0.00,,,0.00,401.0,meteohub,2013-03-30 21:47:00,
2013-03-30 15:52:00,70.2,17.1,29.66,WNW,286,6.0,9.0,13,0.00,,,0.00,464.0,meteohub,2013-03-30 21:52:00,
2013-03-30 15:57:00,70.7,15.6,29.66,West,271,9.0,11.0,12,0.00,,,0.00,466.0,meteohub,2013-03-30 21:57:00,
2013-03-30 16:07:00,70.9,13.8,29.66,WNW,301,7.0,13.0,11,0.00,,,0.00,473.0,meteohub,2013-03-30 22:07:00,
2013-03-30 16:12:00,70.5,13.5,29.65,WNW,288,6.0,13.0,11,0.00,,,0.00,469.0,meteohub,2013-03-30 22:12:00,
2013-03-30 16:17:00,71.1,13.8,29.65,North,355,3.0,12.0,11,0.00,,,0.00,434.0,meteohub,2013-03-30 22:17:00,
2013-03-30 16:22:00,70.9,13.8,29.65,WNW,288,5.0,12.0,11,0.00,,,0.00,253.0,meteohub,2013-03-30 22:22:00,
2013-03-30 16:27:00,70.5,13.5,29.65,WSW,258,3.0,10.0,11,0.00,,,0.00,294.0,meteohub,2013-03-30 22:27:00,
2013-03-30 16:32:00,70.2,15.1,29.65,WNW,289,7.0,10.0,12,0.00,,,0.00,345.0,meteohub,2013-03-30 22:32:00,
2013-03-30 16:37:00,71.1,13.8,29.64,WNW,300,8.0,9.0,11,0.00,,,0.00,411.0,meteohub,2013-03-30 22:37:00,
2013-03-30 16:42:00,70.9,13.8,29.64,WNW,294,2.0,9.0,11,0.00,,,0.00,250.0,meteohub,2013-03-30 22:42:00,
2013-03-30 16:52:00,70.9,13.8,29.64,WNW,287,7.0,8.0,11,0.00,,,0.00,475.0,meteohub,2013-03-30 22:52:00,
2013-03-30 16:57:00,70.5,13.5,29.63,WSW,237,4.0,11.0,11,0.00,,,0.00,434.0,meteohub,2013-03-30 22:57:00,
2013-03-30 17:02:00,71.2,14.0,29.63,SW,214,0.0,11.0,11,0.00,,,0.00,329.0,meteohub,2013-03-30 23:02:00,
2013-03-30 17:12:00,70.5,13.5,29.63,West,277,5.0,9.0,11,0.00,,,0.00,162.0,meteohub,2013-03-30 23:12:00,
2013-03-30 17:17:00,70.3,13.3,29.63,WSW,255,8.0,9.0,11,0.00,,,0.00,155.0,meteohub,2013-03-30 23:17:00,
2013-03-30 17:22:00,70.3,15.3,29.63,WSW,248,5.0,12.0,12,0.00,,,0.00,186.0,meteohub,2013-03-30 23:22:00,
2013-03-30 17:27:00,70.5,13.5,29.63,SW,233,3.0,12.0,11,0.00,,,0.00,167.0,meteohub,2013-03-30 23:27:00,
2013-03-30 17:32:00,70.5,13.5,29.63,WSW,241,8.0,13.0,11,0.00,,,0.00,149.0,meteohub,2013-03-30 23:32:00,
2013-03-30 17:37:00,70.3,13.3,29.63,SW,215,5.0,13.0,11,0.00,,,0.00,132.0,meteohub,2013-03-30 23:37:00,
2013-03-30 17:42:00,70.2,15.1,29.62,SSW,211,2.0,13.0,12,0.00,,,0.00,116.0,meteohub,2013-03-30 23:42:00,
2013-03-30 17:47:00,70.2,13.1,29.62,SW,230,2.0,12.0,11,0.00,,,0.00,113.0,meteohub,2013-03-30 23:47:00,
2013-03-30 17:52:00,70.0,13.1,29.62,SW,217,6.0,12.0,11,0.00,,,0.00,107.0,meteohub,2013-03-30 23:52:00,
2013-03-30 17:57:00,69.6,12.7,29.62,WSW,238,4.0,10.0,11,0.00,,,0.00,93.0,meteohub,2013-03-30 23:57:00,
2013-03-30 18:02:00,69.6,14.7,29.62,SSW,192,3.0,8.0,12,0.00,,,0.00,81.0,meteohub,2013-03-31 00:02:00,
2013-03-30 18:07:00,69.4,14.5,29.62,SSW,200,4.0,8.0,12,0.00,,,0.00,77.0,meteohub,2013-03-31 00:07:00,
2013-03-30 18:12:00,69.4,14.5,29.62,SSW,203,5.0,8.0,12,0.00,,,0.00,70.0,meteohub,2013-03-31 00:12:00,
2013-03-30 18:17:00,69.4,14.5,29.62,SSW,196,1.0,8.0,12,0.00,,,0.00,60.0,meteohub,2013-03-31 00:17:00,
2013-03-30 18:27:00,69.1,14.4,29.63,South,183,1.0,7.0,12,0.00,,,0.00,44.0,meteohub,2013-03-31 00:27:00,
2013-03-30 18:32:00,69.1,14.4,29.63,SW,231,2.0,9.0,12,0.00,,,0.00,46.0,meteohub,2013-03-31 00:32:00,
2013-03-30 18:42:00,69.3,16.3,29.64,NW,315,14.0,14.0,13,0.00,,,0.00,39.0,meteohub,2013-03-31 00:42:00,
2013-03-30 18:52:00,68.5,15.8,29.63,NW,319,5.0,20.0,13,0.00,,,0.00,18.0,meteohub,2013-03-31 00:52:00,
2013-03-30 19:02:00,68.5,15.8,29.64,West,276,3.0,8.0,13,0.00,,,0.00,16.0,meteohub,2013-03-31 01:02:00,
2013-03-30 19:12:00,68.2,17.2,29.64,WSW,252,10.0,13.0,14,0.00,,,0.00,7.0,meteohub,2013-03-31 01:12:00,
2013-03-30 19:17:00,68.0,17.1,29.64,West,263,4.0,13.0,14,0.00,,,0.00,5.0,meteohub,2013-03-31 01:17:00,
2013-03-30 19:22:00,68.0,18.7,29.65,NW,323,13.0,15.0,15,0.00,,,0.00,5.0,meteohub,2013-03-31 01:22:00,
2013-03-30 19:27:00,67.8,18.5,29.65,NNW,328,8.0,16.0,15,0.00,,,0.00,0.0,meteohub,2013-03-31 01:27:00,
2013-03-30 19:32:00,67.8,18.5,29.65,NW,306,0.0,16.0,15,0.00,,,0.00,0.0,meteohub,2013-03-31 01:32:00,
2013-03-30 19:37:00,67.6,18.3,29.65,WNW,296,3.0,16.0,15,0.00,,,0.00,0.0,meteohub,2013-03-31 01:37:00,
2013-03-30 19:42:00,67.5,18.1,29.65,NW,317,5.0,12.0,15,0.00,,,0.00,0.0,meteohub,2013-03-31 01:42:00,
2013-03-30 19:52:00,67.3,19.6,29.66,WNW,290,4.0,13.0,16,0.00,,,0.00,0.0,meteohub,2013-03-31 01:52:00,
2013-03-30 19:57:00,67.1,19.4,29.66,West,267,2.0,13.0,16,0.00,,,0.00,0.0,meteohub,2013-03-31 01:57:00,
2013-03-30 20:02:00,66.9,19.2,29.66,WNW,301,7.0,13.0,16,0.00,,,0.00,0.0,meteohub,2013-03-31 02:02:00,
2013-03-30 20:07:00,66.7,20.5,29.66,West,276,4.0,12.0,17,0.00,,,0.00,0.0,meteohub,2013-03-31 02:07:00,
2013-03-30 20:17:00,66.2,21.4,29.67,West,264,4.0,17.0,18,0.00,,,0.00,0.0,meteohub,2013-03-31 02:17:00,
2013-03-30 20:27:00,66.4,20.3,29.67,NW,319,3.0,12.0,17,0.00,,,0.00,0.0,meteohub,2013-03-31 02:27:00,
2013-03-30 20:37:00,66.2,21.4,29.68,NNW,344,3.0,9.0,18,0.00,,,0.00,0.0,meteohub,2013-03-31 02:37:00,
2013-03-30 20:42:00,65.8,21.2,29.68,North,11,7.0,9.0,18,0.00,,,0.00,0.0,meteohub,2013-03-31 02:42:00,
2013-03-30 20:52:00,65.8,22.5,29.69,NNW,336,5.0,14.0,19,0.00,,,0.00,0.0,meteohub,2013-03-31 02:52:00,
2013-03-30 20:57:00,65.7,22.3,29.69,WNW,288,7.0,14.0,19,0.00,,,0.00,0.0,meteohub,2013-03-31 02:57:00,
2013-03-30 21:02:00,65.5,23.4,29.69,WSW,246,8.0,14.0,20,0.00,,,0.00,0.0,meteohub,2013-03-31 03:02:00,
2013-03-30 21:07:00,65.3,23.2,29.69,WSW,254,6.0,17.0,20,0.00,,,0.00,0.0,meteohub,2013-03-31 03:07:00,
2013-03-30 21:12:00,65.1,23.0,29.69,West,279,5.0,17.0,20,0.00,,,0.00,0.0,meteohub,2013-03-31 03:12:00,
2013-03-30 21:22:00,64.8,23.9,29.69,West,266,2.0,12.0,21,0.00,,,0.00,0.0,meteohub,2013-03-31 03:22:00,
2013-03-30 21:27:00,64.8,23.9,29.69,West,279,2.0,9.0,21,0.00,,,0.00,0.0,meteohub,2013-03-31 03:27:00,
2013-03-30 21:37:00,64.6,23.7,29.69,NNW,329,3.0,8.0,21,0.00,,,0.00,0.0,meteohub,2013-03-31 03:37:00,
2013-03-30 21:42:00,64.6,23.7,29.70,NW,315,7.0,8.0,21,0.00,,,0.00,0.0,meteohub,2013-03-31 03:42:00,
2013-03-30 21:47:00,64.6,23.7,29.70,NNW,331,6.0,10.0,21,0.00,,,0.00,0.0,meteohub,2013-03-31 03:47:00,
2013-03-30 21:52:00,64.4,23.5,29.70,WNW,298,1.0,10.0,21,0.00,,,0.00,0.0,meteohub,2013-03-31 03:52:00,
2013-03-30 21:57:00,64.4,23.5,29.70,WNW,300,5.0,10.0,21,0.00,,,0.00,0.0,meteohub,2013-03-31 03:57:00,
2013-03-30 22:02:00,64.2,23.5,29.70,NW,311,4.0,7.0,21,0.00,,,0.00,0.0,meteohub,2013-03-31 04:02:00,
2013-03-30 22:07:00,64.2,24.6,29.70,NW,319,5.0,7.0,22,0.00,,,0.00,0.0,meteohub,2013-03-31 04:07:00,
2013-03-30 22:12:00,64.2,24.6,29.70,WNW,298,4.0,9.0,22,0.00,,,0.00,0.0,meteohub,2013-03-31 04:12:00,
2013-03-30 22:17:00,64.0,24.4,29.71,West,275,4.0,9.0,22,0.00,,,0.00,0.0,meteohub,2013-03-31 04:17:00,
2013-03-30 22:27:00,63.7,24.1,29.70,WNW,299,3.0,6.0,22,0.00,,,0.00,0.0,meteohub,2013-03-31 04:27:00,
2013-03-30 22:32:00,63.5,25.0,29.70,WNW,284,2.0,6.0,23,0.00,,,0.00,0.0,meteohub,2013-03-31 04:32:00,
2013-03-30 22:42:00,63.3,24.8,29.70,North,355,2.0,9.0,23,0.00,,,0.00,0.0,meteohub,2013-03-31 04:42:00,
2013-03-30 22:47:00,63.1,24.8,29.70,NNW,329,4.0,7.0,23,0.00,,,0.00,0.0,meteohub,2013-03-31 04:47:00,
2013-03-30 22:52:00,63.1,24.8,29.70,WNW,293,3.0,7.0,23,0.00,,,0.00,0.0,meteohub,2013-03-31 04:52:00,
2013-03-30 22:57:00,63.0,25.5,29.70,NW,311,0.0,7.0,24,0.00,,,0.00,0.0,meteohub,2013-03-31 04:57:00,
2013-03-30 23:07:00,62.8,25.5,29.70,NW,320,3.0,7.0,24,0.00,,,0.00,0.0,meteohub,2013-03-31 05:07:00,
2013-03-30 23:12:00,62.8,25.5,29.70,NNW,333,1.0,8.0,24,0.00,,,0.00,0.0,meteohub,2013-03-31 05:12:00,
2013-03-30 23:17:00,62.8,25.5,29.70,WNW,303,2.0,8.0,24,0.00,,,0.00,0.0,meteohub,2013-03-31 05:17:00,
2013-03-30 23:22:00,62.4,25.2,29.70,West,277,0.0,8.0,24,0.00,,,0.00,0.0,meteohub,2013-03-31 05:22:00,
2013-03-30 23:32:00,62.2,26.1,29.70,West,277,0.0,6.0,25,0.00,,,0.00,0.0,meteohub,2013-03-31 05:32:00,
2013-03-30 23:42:00,61.9,25.7,29.69,NW,324,6.0,8.0,25,0.00,,,0.00,0.0,meteohub,2013-03-31 05:42:00,
2013-03-30 23:47:00,61.9,25.7,29.69,NW,313,5.0,8.0,25,0.00,,,0.00,0.0,meteohub,2013-03-31 05:47:00,
2013-03-30 23:52:00,61.7,25.5,29.69,North,355,2.0,9.0,25,0.00,,,0.00,0.0,meteohub,2013-03-31 05:52:00,